This is the latest recevied weather packets stored in our database for station/object YT1XN-8. If no packets are shown the sender has not sent any weather packets the latest 10 day(s).
| Time | Temp. | Humidity | Pressure | Rain* | Wind** | Luminosity | Snow |
|---|---|---|---|---|---|---|---|
| 1777416646 | 13.33° C | 62% | 1019.2 hPa | 0 mm | - | - | - |
| 1777416405 | 13.33° C | 61% | 1019.3 hPa | 0 mm | - | - | - |
| 1777416046 | 13.33° C | 60% | 1019.2 hPa | 0 mm | - | - | - |
| 1777415745 | 13.33° C | 58% | 1019.2 hPa | 0 mm | - | - | - |
| 1777415446 | 13.33° C | 58% | 1019.2 hPa | 0 mm | - | - | - |
| 1777415085 | 13.33° C | 58% | 1019.2 hPa | 0 mm | - | - | - |
| 1777414846 | 13.33° C | 59% | 1019.2 hPa | 0 mm | - | - | - |
| 1777414425 | 13.33° C | 58% | 1019 hPa | 0 mm | - | - | - |
| 1777414246 | 13.33° C | 58% | 1018.9 hPa | 0 mm | - | - | - |
| 1777413765 | 13.33° C | 60% | 1018.9 hPa | 0 mm | - | - | - |
| 1777413646 | 13.33° C | 59% | 1018.8 hPa | 0 mm | - | - | - |
| 1777413105 | 13.89° C | 59% | 1019 hPa | 0 mm | - | - | - |
| 1777413047 | 13.89° C | 58% | 1019 hPa | 0 mm | - | - | - |
| 1777412445 | 14.44° C | 56% | 1019.1 hPa | 0 mm | - | - | - |
| 1777411847 | 14.44° C | 52% | 1019.2 hPa | 0 mm | - | - | - |
| 1777411785 | 14.44° C | 52% | 1019.1 hPa | 0 mm | - | - | - |
| 1777411246 | 14.44° C | 51% | 1018.9 hPa | 0 mm | - | - | - |
| 1777411125 | 14.44° C | 52% | 1018.8 hPa | 0 mm | - | - | - |
| 1777410646 | 14.44° C | 53% | 1018.9 hPa | 0 mm | - | - | - |
| 1777410465 | 14.44° C | 53% | 1018.8 hPa | 0 mm | - | - | - |
| 1777410046 | 14.44° C | 53% | 1018.7 hPa | 0 mm | - | - | - |
| 1777409805 | 14.44° C | 52% | 1018.7 hPa | 0 mm | - | - | - |
| 1777409446 | 14.44° C | 52% | 1018.8 hPa | 0 mm | - | - | - |
| 1777409145 | 14.44° C | 53% | 1018.7 hPa | 0 mm | - | - | - |
| 1777408846 | 15° C | 52% | 1018.7 hPa | 0 mm | - | - | - |
* Rain latest hour (hover to see other rain measurements)
** Current wind speed in m/s (hover to see current wind gust speed)